FENGYUN 1C DEB, 30753

Orbit data source: Space-Track

FENGYUN 1C DEB, 30753 is space debris in SSO originally from a launch on Mon, 10 May 1999 UTC launched from the Taiyaun Space Center, China (TSC). Fengyun 1C debris stems from the Chinese weather satellite Fengyun-1C, which was intentionally destroyed by a Chinese anti-satellite missile in 2007. This event dramatically increased the amount of space debris, with thousands of trackable fragments posing hazards to satellites and human spaceflight. The Fengyun 1C debris cloud has become a focal point in discussions about space sustainability and the need for international regulations to prevent the creation of new debris.

Loading next visibility...
Identifier
30753, 1999-025ATP
Orbit
SSO
Country
Flag of CNCN / PRC
Related business
Manufacturer
Unknown
Mission
Spacecraft
Bus & Motor
Unknown
Mass
Unknown
Launch date (UTC)
1999-05-10 (27 years ago)
Launch vehicle
Unknown
Launch site
Taiyaun Space Center, China (TSC)
Object type
Payload
Rocket body
Debris
Shape & HBR
Unknown shape, 0.1 m
Radar Cross Section
Medium (>0.1 m² and <1 m²)

Expand to show TLE details & history
Last TLE update: 8 hours ago

TLE from 8 hours ago
0 FENGYUN 1C DEB
1 30753U 99025ATP 26256.07807897  .00000940  00000-0  51625-3 0  9995
2 30753  98.7864 294.9242 0054027 295.3096  64.2485 14.13454547  2274
Epoch: 2026-09-13T01:52Z
TLE epoch observation values (Epoch: 2026-09-13T01:52:26.023Z)
Latitude
-0.00013°
Longitude
-85.2621°
Altitude
833.685 km
Speed
7.445 km/s
True Right ascension
19h 39m 41s
True Declination
0° 00' 00"
Sunlit
Object was in full shadow at epoch
Visualization orbit readout
Latitude
Unknown
Longitude
Unknown
Altitude
Unknown
Speed
Unknown
Apparent Right ascension
Unknown
Apparent Declination
Unknown
Sunlit
N/A
Visualization observer readout
Local Sidereal Time
02:32:58
Azimuth
Unknown
Elevation
Unknown
Doppler factor
Unknown
Orbital elements
Apogee altitude
883.768 km
Perigee altitude
805.722 km
Semi-major axis
7,222.882 km
Eccentricity
0.0054
Inclination
98.7864°
RAAN
294.9242°
Arg. of periapsis
295.3096°
True anomaly
64.80775°
Mean anomaly
64.2485°
Eccentric anomaly
64.52796°
Mean motion
3.53572 °/min
Orbital period
101.82 mins
BSTAR
0.00051625
Loading maneuver chart data...
Computing Atmospheric mass density...

Documentation

Showing up to 5 results
|